Year,Month,Day,Hour,Minute,Value (Times are PST for temperature in C)
2009,06,29,00,00,12.10
2009,06,29,00,01,12.10
2009,06,29,00,02,12.10
2009,06,29,00,03,12.10
2009,06,29,00,04,12.10
2009,06,29,00,05,12.10
2009,06,29,00,06,12.10
2009,06,29,00,07,12.10
2009,06,29,00,08,12.00
2009,06,29,00,09,12.00
2009,06,29,00,10,12.00
2009,06,29,00,11,12.00
2009,06,29,00,12,12.00
2009,06,29,00,13,12.00
2009,06,29,00,14,12.00
2009,06,29,00,15,11.90
2009,06,29,00,16,11.90
2009,06,29,00,17,11.90
2009,06,29,00,18,11.90
2009,06,29,00,19,11.90
2009,06,29,00,20,11.90
2009,06,29,00,21,11.90
2009,06,29,00,22,11.90
2009,06,29,00,23,11.90
2009,06,29,00,24,11.90
2009,06,29,00,25,11.90
2009,06,29,00,26,11.90
2009,06,29,00,27,11.90
2009,06,29,00,28,11.90
2009,06,29,00,29,11.90
2009,06,29,00,30,11.90
2009,06,29,00,31,11.90
2009,06,29,00,32,11.90
2009,06,29,00,33,11.90
2009,06,29,00,34,11.90
2009,06,29,00,35,12.00
2009,06,29,00,36,12.00
2009,06,29,00,37,12.00
2009,06,29,00,38,12.10
2009,06,29,00,39,12.10
2009,06,29,00,40,12.10
2009,06,29,00,41,12.10
2009,06,29,00,42,12.10
2009,06,29,00,43,12.10
2009,06,29,00,44,12.10
2009,06,29,00,45,12.10
2009,06,29,00,46,12.10
2009,06,29,00,47,12.10
2009,06,29,00,48,12.10
2009,06,29,00,49,12.10
2009,06,29,00,50,12.10
2009,06,29,00,51,12.10
2009,06,29,00,52,12.10
2009,06,29,00,53,12.10
2009,06,29,00,54,12.10
2009,06,29,00,55,12.10
2009,06,29,00,56,12.10
2009,06,29,00,57,12.10
2009,06,29,00,58,12.10
2009,06,29,00,59,12.10
2009,06,29,01,00,12.10
2009,06,29,01,01,12.10
2009,06,29,01,02,12.10
2009,06,29,01,03,12.10
2009,06,29,01,04,12.10
2009,06,29,01,05,12.00
2009,06,29,01,06,12.00
2009,06,29,01,07,12.00
2009,06,29,01,08,12.00
2009,06,29,01,09,12.00
2009,06,29,01,10,12.00
2009,06,29,01,11,11.90
2009,06,29,01,12,11.90
2009,06,29,01,13,11.90
2009,06,29,01,14,11.90
2009,06,29,01,15,11.90
2009,06,29,01,16,11.90
2009,06,29,01,17,11.90
2009,06,29,01,18,11.90
2009,06,29,01,19,11.90
2009,06,29,01,20,11.90
2009,06,29,01,21,11.90
2009,06,29,01,22,11.90
2009,06,29,01,23,11.90
2009,06,29,01,24,11.90
2009,06,29,01,25,11.90
2009,06,29,01,26,11.90
2009,06,29,01,27,11.80
2009,06,29,01,28,11.80
2009,06,29,01,29,11.80
2009,06,29,01,30,11.80
2009,06,29,01,31,11.80
2009,06,29,01,32,11.80
2009,06,29,01,33,11.80
2009,06,29,01,34,11.80
2009,06,29,01,35,11.70
2009,06,29,01,36,11.70
2009,06,29,01,37,11.70
2009,06,29,01,38,11.70
2009,06,29,01,39,11.70
2009,06,29,01,40,11.70
2009,06,29,01,41,11.70
2009,06,29,01,42,11.70
2009,06,29,01,43,11.60
2009,06,29,01,44,11.60
2009,06,29,01,45,11.60
2009,06,29,01,46,11.60
2009,06,29,01,47,11.60
2009,06,29,01,48,11.60
2009,06,29,01,49,11.60
2009,06,29,01,50,11.60
2009,06,29,01,51,11.60
2009,06,29,01,52,11.60
2009,06,29,01,53,11.60
2009,06,29,01,54,11.60
2009,06,29,01,55,11.50
2009,06,29,01,56,11.50
2009,06,29,01,57,11.60
2009,06,29,01,58,11.50
2009,06,29,01,59,11.50
2009,06,29,02,00,11.50
2009,06,29,02,01,11.50
2009,06,29,02,02,11.50
2009,06,29,02,03,11.50
2009,06,29,02,04,11.40
2009,06,29,02,05,11.40
2009,06,29,02,06,11.40
2009,06,29,02,07,11.40
2009,06,29,02,08,11.40
2009,06,29,02,09,11.40
2009,06,29,02,10,11.40
2009,06,29,02,11,11.40
2009,06,29,02,12,11.30
2009,06,29,02,13,11.30
2009,06,29,02,14,11.30
2009,06,29,02,15,11.30
2009,06,29,02,16,11.30
2009,06,29,02,17,11.30
2009,06,29,02,18,11.30
2009,06,29,02,19,11.20
2009,06,29,02,20,11.20
2009,06,29,02,21,11.20
2009,06,29,02,22,11.20
2009,06,29,02,23,11.20
2009,06,29,02,24,11.20
2009,06,29,02,25,11.20
2009,06,29,02,26,11.20
2009,06,29,02,27,11.20
2009,06,29,02,28,11.20
2009,06,29,02,29,11.20
2009,06,29,02,30,11.20
2009,06,29,02,31,11.20
2009,06,29,02,32,11.20
2009,06,29,02,33,11.20
2009,06,29,02,34,11.20
2009,06,29,02,35,11.20
2009,06,29,02,36,11.20
2009,06,29,02,37,11.20
2009,06,29,02,38,11.20
2009,06,29,02,39,11.20
2009,06,29,02,40,11.10
2009,06,29,02,41,11.10
2009,06,29,02,42,11.10
2009,06,29,02,43,11.10
2009,06,29,02,44,11.10
2009,06,29,02,45,11.10
2009,06,29,02,46,11.10
2009,06,29,02,47,11.00
2009,06,29,02,48,11.00
2009,06,29,02,49,11.00
2009,06,29,02,50,10.90
2009,06,29,02,51,10.90
2009,06,29,02,52,10.90
2009,06,29,02,53,10.80
2009,06,29,02,54,10.80
2009,06,29,02,55,10.80
2009,06,29,02,56,10.80
2009,06,29,02,57,10.80
2009,06,29,02,58,10.70
2009,06,29,02,59,10.70
2009,06,29,03,00,10.70
2009,06,29,03,01,10.70
2009,06,29,03,02,10.70
2009,06,29,03,06,10.60
2009,06,29,03,07,10.60
2009,06,29,03,08,10.60
2009,06,29,03,09,10.60
2009,06,29,03,10,10.60
2009,06,29,03,11,10.60
2009,06,29,03,12,10.60
2009,06,29,03,13,10.60
2009,06,29,03,14,10.60
2009,06,29,03,15,10.60
2009,06,29,03,16,10.60
2009,06,29,03,17,10.60
2009,06,29,03,18,10.60
2009,06,29,03,19,10.60
2009,06,29,03,20,10.60
2009,06,29,03,21,10.60
2009,06,29,03,22,10.60
2009,06,29,03,23,10.60
2009,06,29,03,24,10.60
2009,06,29,03,25,10.60
2009,06,29,03,26,10.60
2009,06,29,03,27,10.60
2009,06,29,03,28,10.60
2009,06,29,03,29,10.60
2009,06,29,03,30,10.60
2009,06,29,03,31,10.60
2009,06,29,03,32,10.60
2009,06,29,03,33,10.60
2009,06,29,03,34,10.60
2009,06,29,03,35,10.60
2009,06,29,03,36,10.60
2009,06,29,03,37,10.60
2009,06,29,03,38,10.60
2009,06,29,03,39,10.60
2009,06,29,03,40,10.60
2009,06,29,03,41,10.60
2009,06,29,03,42,10.60
2009,06,29,03,43,10.60
2009,06,29,03,44,10.60
2009,06,29,03,45,10.60
2009,06,29,03,46,10.50
2009,06,29,03,47,10.50
2009,06,29,03,48,10.50
2009,06,29,03,49,10.50
2009,06,29,03,50,10.50
2009,06,29,03,51,10.40
2009,06,29,03,52,10.40
2009,06,29,03,53,10.40
2009,06,29,03,54,10.40
2009,06,29,03,55,10.30
2009,06,29,03,56,10.30
2009,06,29,03,57,10.30
2009,06,29,03,58,10.30
2009,06,29,03,59,10.30
2009,06,29,04,00,10.30
2009,06,29,04,01,10.20
2009,06,29,04,02,10.20
2009,06,29,04,03,10.20
2009,06,29,04,04,10.20
2009,06,29,04,05,10.20
2009,06,29,04,06,10.20
2009,06,29,04,07,10.20
2009,06,29,04,08,10.20
2009,06,29,04,09,10.10
2009,06,29,04,10,10.10
2009,06,29,04,11,10.10
2009,06,29,04,12,10.10
2009,06,29,04,13,10.10
2009,06,29,04,14,10.10
2009,06,29,04,15,10.10
2009,06,29,04,16,10.10
2009,06,29,04,17,10.10
2009,06,29,04,18,10.10
2009,06,29,04,19,10.00
2009,06,29,04,20,10.00
2009,06,29,04,21,10.00
2009,06,29,04,22,10.00
2009,06,29,04,23,9.90
2009,06,29,04,24,9.90
2009,06,29,04,25,9.90
2009,06,29,04,26,9.90
2009,06,29,04,27,9.90
2009,06,29,04,28,9.90
2009,06,29,04,29,9.80
2009,06,29,04,30,9.80
2009,06,29,04,31,9.80
2009,06,29,04,32,9.80
2009,06,29,04,33,9.80
2009,06,29,04,34,9.80
2009,06,29,04,35,9.80
2009,06,29,04,36,9.80
2009,06,29,04,37,9.70
2009,06,29,04,38,9.70
2009,06,29,04,39,9.70
2009,06,29,04,40,9.70
2009,06,29,04,41,9.70
2009,06,29,04,42,9.70
2009,06,29,04,43,9.70
2009,06,29,04,44,9.70
2009,06,29,04,45,9.60
2009,06,29,04,46,9.60
2009,06,29,04,47,9.70
2009,06,29,04,48,9.70
2009,06,29,04,49,9.70
2009,06,29,04,50,9.70
2009,06,29,04,51,9.70
2009,06,29,04,52,9.70
2009,06,29,04,53,9.70
2009,06,29,04,54,9.70
2009,06,29,04,55,9.60
2009,06,29,04,56,9.60
2009,06,29,04,57,9.60
2009,06,29,04,58,9.60
2009,06,29,04,59,9.60
2009,06,29,05,00,9.60
2009,06,29,05,01,9.60
2009,06,29,05,02,9.60
2009,06,29,05,03,9.60
2009,06,29,05,04,9.60
2009,06,29,05,05,9.60
2009,06,29,05,06,9.50
2009,06,29,05,07,9.50
2009,06,29,05,08,9.50
2009,06,29,05,09,9.50
2009,06,29,05,10,9.50
2009,06,29,05,11,9.40
2009,06,29,05,12,9.40
2009,06,29,05,13,9.40
2009,06,29,05,14,9.40
2009,06,29,05,15,9.40
2009,06,29,05,16,9.40
2009,06,29,05,17,9.40
2009,06,29,05,18,9.40
2009,06,29,05,19,9.30
2009,06,29,05,20,9.30
2009,06,29,05,21,9.30
2009,06,29,05,22,9.30
2009,06,29,05,23,9.30
2009,06,29,05,24,9.30
2009,06,29,05,25,9.30
2009,06,29,05,26,9.20
2009,06,29,05,27,9.20
2009,06,29,05,28,9.20
2009,06,29,05,29,9.20
2009,06,29,05,30,9.20
2009,06,29,05,31,9.20
2009,06,29,05,32,9.20
2009,06,29,05,33,9.20
2009,06,29,05,34,9.20
2009,06,29,05,35,9.10
2009,06,29,05,36,9.10
2009,06,29,05,37,9.10
2009,06,29,05,38,9.10
2009,06,29,05,39,9.10
2009,06,29,05,40,9.20
2009,06,29,05,41,9.20
2009,06,29,05,42,9.20
2009,06,29,05,43,9.20
2009,06,29,05,44,9.20
2009,06,29,05,45,9.20
2009,06,29,05,46,9.20
2009,06,29,05,47,9.20
2009,06,29,05,48,9.20
2009,06,29,05,49,9.20
2009,06,29,05,50,9.20
2009,06,29,05,51,9.20
2009,06,29,05,52,9.20
2009,06,29,05,53,9.30
2009,06,29,05,54,9.30
2009,06,29,05,55,9.30
2009,06,29,05,56,9.30
2009,06,29,05,57,9.30
2009,06,29,05,58,9.30
2009,06,29,05,59,9.30
2009,06,29,06,00,9.30
2009,06,29,06,01,9.30
2009,06,29,06,02,9.30
2009,06,29,06,03,9.30
2009,06,29,06,04,9.30
2009,06,29,06,05,9.40
2009,06,29,06,06,9.40
2009,06,29,06,07,9.40
2009,06,29,06,08,9.40
2009,06,29,06,09,9.50
2009,06,29,06,10,9.50
2009,06,29,06,11,9.50
2009,06,29,06,12,9.50
2009,06,29,06,13,9.60
2009,06,29,06,14,9.60
2009,06,29,06,15,9.60
2009,06,29,06,16,9.60
2009,06,29,06,17,9.60
2009,06,29,06,18,9.60
2009,06,29,06,19,9.60
2009,06,29,06,20,9.60
2009,06,29,06,21,9.70
2009,06,29,06,22,9.70
2009,06,29,06,23,9.70
2009,06,29,06,24,9.70
2009,06,29,06,25,9.80
2009,06,29,06,26,9.80
2009,06,29,06,27,9.80
2009,06,29,06,28,9.80
2009,06,29,06,29,9.90
2009,06,29,06,30,9.90
2009,06,29,06,31,9.90
2009,06,29,06,32,10.00
2009,06,29,06,33,10.00
2009,06,29,06,34,10.00
2009,06,29,06,35,10.10
2009,06,29,06,36,10.10
2009,06,29,06,37,10.10
2009,06,29,06,38,10.20
2009,06,29,06,39,10.20
2009,06,29,06,40,10.20
2009,06,29,06,41,10.30
2009,06,29,06,42,10.30
2009,06,29,06,43,10.40
2009,06,29,06,44,10.50
2009,06,29,06,45,10.50
2009,06,29,06,46,10.60
2009,06,29,06,47,10.70
2009,06,29,06,48,10.70
2009,06,29,06,49,10.80
2009,06,29,06,50,10.80
2009,06,29,06,51,10.90
2009,06,29,06,52,10.90
2009,06,29,06,53,11.00
2009,06,29,06,54,11.00
2009,06,29,06,55,11.10
2009,06,29,06,56,11.10
2009,06,29,06,57,11.20
2009,06,29,06,58,11.30
2009,06,29,06,59,11.30
2009,06,29,07,00,11.40
2009,06,29,07,01,11.50
2009,06,29,07,02,11.60
2009,06,29,07,03,11.60
2009,06,29,07,04,11.70
2009,06,29,07,05,11.70
2009,06,29,07,06,11.80
2009,06,29,07,07,11.90
2009,06,29,07,08,11.90
2009,06,29,07,09,12.00
2009,06,29,07,10,12.10
2009,06,29,07,11,12.10
2009,06,29,07,12,12.20
2009,06,29,07,13,12.20
2009,06,29,07,14,12.20
2009,06,29,07,15,12.30
2009,06,29,07,16,12.30
2009,06,29,07,17,12.40
2009,06,29,07,18,12.40
2009,06,29,07,19,12.50
2009,06,29,07,20,12.50
2009,06,29,07,21,12.60
2009,06,29,07,22,12.60
2009,06,29,07,23,12.70
2009,06,29,07,24,12.70
2009,06,29,07,25,12.80
2009,06,29,07,26,12.90
2009,06,29,07,27,12.90
2009,06,29,07,28,13.00
2009,06,29,07,29,13.10
2009,06,29,07,30,13.20
2009,06,29,07,31,13.30
2009,06,29,07,32,13.40
2009,06,29,07,33,13.40
2009,06,29,07,34,13.50
2009,06,29,07,35,13.50
2009,06,29,07,36,13.60
2009,06,29,07,37,13.60
2009,06,29,07,38,13.70
2009,06,29,07,39,13.80
2009,06,29,07,40,13.80
2009,06,29,07,41,13.90
2009,06,29,07,42,14.00
2009,06,29,07,43,14.10
2009,06,29,07,44,14.20
2009,06,29,07,45,14.30
2009,06,29,07,46,14.40
2009,06,29,07,47,14.50
2009,06,29,07,48,14.60
2009,06,29,07,49,14.60
2009,06,29,07,50,14.60
2009,06,29,07,51,14.60
2009,06,29,07,52,14.50
2009,06,29,07,53,14.50
2009,06,29,07,54,14.60
2009,06,29,07,55,14.60
2009,06,29,07,56,14.60
2009,06,29,07,57,14.70
2009,06,29,07,58,14.70
2009,06,29,07,59,14.70
2009,06,29,08,00,14.70
2009,06,29,08,01,14.70
2009,06,29,08,02,14.70
2009,06,29,08,03,14.70
2009,06,29,08,04,14.80
2009,06,29,08,05,14.90
2009,06,29,08,06,15.00
2009,06,29,08,07,15.00
2009,06,29,08,08,15.10
2009,06,29,08,09,15.10
2009,06,29,08,10,15.20
2009,06,29,08,11,15.30
2009,06,29,08,12,15.30
2009,06,29,08,13,15.40
2009,06,29,08,14,15.40
2009,06,29,08,15,15.40
2009,06,29,08,16,15.50
2009,06,29,08,17,15.50
2009,06,29,08,18,15.50
2009,06,29,08,19,15.50
2009,06,29,08,20,15.50
2009,06,29,08,21,15.50
2009,06,29,08,22,15.50
2009,06,29,08,23,15.50
2009,06,29,08,24,15.60
2009,06,29,08,25,15.60
2009,06,29,08,26,15.60
2009,06,29,08,27,15.60
2009,06,29,08,28,15.70
2009,06,29,08,29,15.70
2009,06,29,08,30,15.70
2009,06,29,08,31,15.70
2009,06,29,08,32,15.80
2009,06,29,08,33,15.80
2009,06,29,08,34,15.80
2009,06,29,08,35,15.80
2009,06,29,08,36,15.80
2009,06,29,08,37,15.80
2009,06,29,08,38,15.80
2009,06,29,08,39,15.80
2009,06,29,08,40,15.80
2009,06,29,08,41,15.80
2009,06,29,08,42,15.80
2009,06,29,08,43,15.80
2009,06,29,08,44,15.80
2009,06,29,08,45,15.80
2009,06,29,08,46,15.90
2009,06,29,08,47,16.00
2009,06,29,08,48,16.00
2009,06,29,08,49,16.10
2009,06,29,08,50,16.20
2009,06,29,08,51,16.20
2009,06,29,08,52,16.30
2009,06,29,08,53,16.40
2009,06,29,08,54,16.40
2009,06,29,08,55,16.40
2009,06,29,08,56,16.40
2009,06,29,08,57,16.30
2009,06,29,08,58,16.30
2009,06,29,08,59,16.30
2009,06,29,09,00,16.30
2009,06,29,09,01,16.30
2009,06,29,09,02,16.30
2009,06,29,09,03,16.40
2009,06,29,09,04,16.50
2009,06,29,09,05,16.60
2009,06,29,09,06,16.60
2009,06,29,09,07,16.60
2009,06,29,09,08,16.50
2009,06,29,09,09,16.40
2009,06,29,09,10,16.30
2009,06,29,09,11,16.30
2009,06,29,09,12,16.20
2009,06,29,09,13,16.20
2009,06,29,09,14,16.10
2009,06,29,09,15,16.00
2009,06,29,09,16,15.80
2009,06,29,09,17,15.70
2009,06,29,09,18,15.50
2009,06,29,09,19,15.40
2009,06,29,09,20,15.40
2009,06,29,09,21,15.30
2009,06,29,09,22,15.30
2009,06,29,09,23,15.20
2009,06,29,09,24,15.20
2009,06,29,09,25,15.30
2009,06,29,09,26,15.30
2009,06,29,09,27,15.30
2009,06,29,09,28,15.30
2009,06,29,09,29,15.30
2009,06,29,09,30,15.30
2009,06,29,09,31,15.30
2009,06,29,09,32,15.30
2009,06,29,09,33,15.30
2009,06,29,09,34,15.30
2009,06,29,09,35,15.30
2009,06,29,09,36,15.30
2009,06,29,09,37,15.20
2009,06,29,09,38,15.20
2009,06,29,09,39,15.20
2009,06,29,09,40,15.10
2009,06,29,09,41,15.20
2009,06,29,09,42,15.20
2009,06,29,09,43,15.20
2009,06,29,09,44,15.20
2009,06,29,09,45,15.30
2009,06,29,09,46,15.30
2009,06,29,09,47,15.30
2009,06,29,09,48,15.40
2009,06,29,09,49,15.50
2009,06,29,09,50,15.60
2009,06,29,09,51,15.60
2009,06,29,09,52,15.60
2009,06,29,09,53,15.70
2009,06,29,09,54,15.70
2009,06,29,09,55,15.70
2009,06,29,09,56,15.70
2009,06,29,09,57,15.80
2009,06,29,09,58,15.90
2009,06,29,09,59,15.90
2009,06,29,10,00,16.00
2009,06,29,10,01,16.10
2009,06,29,10,02,16.00
2009,06,29,10,03,15.90
2009,06,29,10,04,15.80
2009,06,29,10,05,15.80
2009,06,29,10,06,15.70
2009,06,29,10,07,15.70
2009,06,29,10,08,15.70
2009,06,29,10,09,15.70
2009,06,29,10,10,15.60
2009,06,29,10,11,15.60
2009,06,29,10,12,15.60
2009,06,29,10,13,15.60
2009,06,29,10,14,15.70
2009,06,29,10,15,15.70
2009,06,29,10,16,15.80
2009,06,29,10,17,16.00
2009,06,29,10,18,16.10
2009,06,29,10,19,16.20
2009,06,29,10,20,16.20
2009,06,29,10,21,16.20
2009,06,29,10,22,16.20
2009,06,29,10,23,16.20
2009,06,29,10,24,16.20
2009,06,29,10,25,16.20
2009,06,29,10,26,16.20
2009,06,29,10,27,16.30
2009,06,29,10,28,16.30
2009,06,29,10,29,16.20
2009,06,29,10,30,16.20
2009,06,29,10,31,16.20
2009,06,29,10,32,16.30
2009,06,29,10,33,16.40
2009,06,29,10,34,16.50
2009,06,29,10,35,16.60
2009,06,29,10,36,16.70
2009,06,29,10,37,16.80
2009,06,29,10,38,16.80
2009,06,29,10,39,16.90
2009,06,29,10,40,17.00
2009,06,29,10,41,17.10
2009,06,29,10,42,17.20
2009,06,29,10,43,17.30
2009,06,29,10,44,17.30
2009,06,29,10,45,17.20
2009,06,29,10,46,17.10
2009,06,29,10,47,16.90
2009,06,29,10,48,16.80
2009,06,29,10,49,16.80
2009,06,29,10,50,16.80
2009,06,29,10,51,16.80
2009,06,29,10,52,16.80
2009,06,29,10,53,16.80
2009,06,29,10,54,16.90
2009,06,29,10,55,16.90
2009,06,29,10,56,16.80
2009,06,29,10,57,16.80
2009,06,29,10,58,16.90
2009,06,29,10,59,16.90
2009,06,29,11,00,17.00
2009,06,29,11,01,17.00
2009,06,29,11,02,17.00
2009,06,29,11,03,17.00
2009,06,29,11,04,17.00
2009,06,29,11,05,17.00
2009,06,29,11,06,16.90
2009,06,29,11,07,17.00
2009,06,29,11,08,17.10
2009,06,29,11,09,17.10
2009,06,29,11,10,17.20
2009,06,29,11,11,17.10
2009,06,29,11,12,17.10
2009,06,29,11,13,17.10
2009,06,29,11,14,17.10
2009,06,29,11,15,17.10
2009,06,29,11,16,17.00
2009,06,29,11,17,16.90
2009,06,29,11,18,16.80
2009,06,29,11,19,16.70
2009,06,29,11,20,16.60
2009,06,29,11,21,16.60
2009,06,29,11,22,16.60
2009,06,29,11,23,16.60
2009,06,29,11,24,16.60
2009,06,29,11,25,16.70
2009,06,29,11,26,16.80
2009,06,29,11,27,16.90
2009,06,29,11,28,16.90
2009,06,29,11,29,16.90
2009,06,29,11,30,16.90
2009,06,29,11,31,16.90
2009,06,29,11,32,16.90
2009,06,29,11,33,16.90
2009,06,29,11,34,16.90
2009,06,29,11,35,16.90
2009,06,29,11,36,16.90
2009,06,29,11,37,16.70
2009,06,29,11,38,16.60
2009,06,29,11,39,16.60
2009,06,29,11,40,16.60
2009,06,29,11,41,16.70
2009,06,29,11,42,16.70
2009,06,29,11,43,16.60
2009,06,29,11,44,16.60
2009,06,29,11,45,16.60
2009,06,29,11,46,16.70
2009,06,29,11,47,16.70
2009,06,29,11,48,16.70
2009,06,29,11,49,16.60
2009,06,29,11,50,16.50
2009,06,29,11,51,16.50
2009,06,29,11,52,16.40
2009,06,29,11,53,16.40
2009,06,29,11,54,16.30
2009,06,29,11,55,16.30
2009,06,29,11,56,16.40
2009,06,29,11,57,16.50
2009,06,29,11,58,16.50
2009,06,29,11,59,16.50
2009,06,29,12,00,16.60
2009,06,29,12,01,16.70
2009,06,29,12,02,16.80
2009,06,29,12,03,16.90
2009,06,29,12,04,16.90
2009,06,29,12,05,17.10
2009,06,29,12,06,17.20
2009,06,29,12,07,17.40
2009,06,29,12,08,17.50
2009,06,29,12,09,17.50
2009,06,29,12,10,17.40
2009,06,29,12,11,17.30
2009,06,29,12,12,17.30
2009,06,29,12,13,17.10
2009,06,29,12,14,17.10
2009,06,29,12,15,17.10
2009,06,29,12,16,17.30
2009,06,29,12,17,17.30
2009,06,29,12,18,17.40
2009,06,29,12,19,17.40
2009,06,29,12,20,17.50
2009,06,29,12,21,17.40
2009,06,29,12,22,17.30
2009,06,29,12,23,17.20
2009,06,29,12,24,17.20
2009,06,29,12,25,17.10
2009,06,29,12,26,17.00
2009,06,29,12,27,17.00
2009,06,29,12,28,17.10
2009,06,29,12,29,17.20
2009,06,29,12,30,17.20
2009,06,29,12,31,17.00
2009,06,29,12,32,16.80
2009,06,29,12,33,16.70
2009,06,29,12,34,16.60
2009,06,29,12,35,16.60
2009,06,29,12,36,16.70
2009,06,29,12,37,16.70
2009,06,29,12,38,16.80
2009,06,29,12,39,16.90
2009,06,29,12,40,17.00
2009,06,29,12,41,17.10
2009,06,29,12,42,17.20
2009,06,29,12,43,17.20
2009,06,29,12,44,17.30
2009,06,29,12,45,17.30
2009,06,29,12,46,17.40
2009,06,29,12,47,17.20
2009,06,29,12,48,17.10
2009,06,29,12,49,17.00
2009,06,29,12,50,16.80
2009,06,29,12,51,16.70
2009,06,29,12,52,16.70
2009,06,29,12,53,16.70
2009,06,29,12,54,16.60
2009,06,29,12,55,16.60
2009,06,29,12,56,16.60
2009,06,29,12,57,16.60
2009,06,29,12,58,16.70
2009,06,29,12,59,16.80
2009,06,29,13,00,17.00
2009,06,29,13,01,17.10
2009,06,29,13,02,17.10
2009,06,29,13,03,17.20
2009,06,29,13,04,17.30
2009,06,29,13,05,17.40
2009,06,29,13,06,17.50
2009,06,29,13,07,17.60
2009,06,29,13,08,17.70
2009,06,29,13,09,17.70
2009,06,29,13,10,17.60
2009,06,29,13,11,17.50
2009,06,29,13,12,17.30
2009,06,29,13,13,17.10
2009,06,29,13,14,16.90
2009,06,29,13,15,16.80
2009,06,29,13,16,16.70
2009,06,29,13,17,16.70
2009,06,29,13,18,16.70
2009,06,29,13,19,16.80
2009,06,29,13,20,16.90
2009,06,29,13,21,17.00
2009,06,29,13,22,17.10
2009,06,29,13,23,17.00
2009,06,29,13,24,17.00
2009,06,29,13,25,16.90
2009,06,29,13,26,17.00
2009,06,29,13,27,17.00
2009,06,29,13,28,17.10
2009,06,29,13,29,17.20
2009,06,29,13,30,17.20
2009,06,29,13,31,17.20
2009,06,29,13,32,17.20
2009,06,29,13,33,17.10
2009,06,29,13,34,17.00
2009,06,29,13,35,17.00
2009,06,29,13,36,16.90
2009,06,29,13,37,16.80
2009,06,29,13,38,16.80
2009,06,29,13,39,16.70
2009,06,29,13,40,16.50
2009,06,29,13,41,16.50
2009,06,29,13,42,16.40
2009,06,29,13,43,16.50
2009,06,29,13,44,16.60
2009,06,29,13,45,16.70
2009,06,29,13,46,16.90
2009,06,29,13,47,17.00
2009,06,29,13,48,17.20
2009,06,29,13,49,17.20
2009,06,29,13,50,17.20
2009,06,29,13,51,17.10
2009,06,29,13,52,17.10
2009,06,29,13,53,17.10
2009,06,29,13,54,17.10
2009,06,29,13,55,17.20
2009,06,29,13,56,17.10
2009,06,29,13,57,17.00
2009,06,29,13,58,16.90
2009,06,29,13,59,16.80
2009,06,29,14,00,16.80
2009,06,29,14,01,16.80
2009,06,29,14,02,16.80
2009,06,29,14,03,16.70
2009,06,29,14,04,16.80
2009,06,29,14,05,16.80
2009,06,29,14,06,16.90
2009,06,29,14,07,16.90
2009,06,29,14,08,16.80
2009,06,29,14,09,16.60
2009,06,29,14,10,16.70
2009,06,29,14,11,16.70
2009,06,29,14,12,16.70
2009,06,29,14,13,16.80
2009,06,29,14,14,16.80
2009,06,29,14,15,16.80
2009,06,29,14,16,16.90
2009,06,29,14,17,17.00
2009,06,29,14,18,17.10
2009,06,29,14,19,17.20
2009,06,29,14,20,17.20
2009,06,29,14,21,17.20
2009,06,29,14,22,17.10
2009,06,29,14,23,17.00
2009,06,29,14,24,16.90
2009,06,29,14,25,16.80
2009,06,29,14,26,16.70
2009,06,29,14,27,16.70
2009,06,29,14,28,16.80
2009,06,29,14,29,17.00
2009,06,29,14,30,17.20
2009,06,29,14,31,17.40
2009,06,29,14,32,17.40
2009,06,29,14,33,17.20
2009,06,29,14,34,17.00
2009,06,29,14,35,16.80
2009,06,29,14,36,16.60
2009,06,29,14,37,16.50
2009,06,29,14,38,16.30
2009,06,29,14,39,16.20
2009,06,29,14,40,16.20
2009,06,29,14,41,16.20
2009,06,29,14,42,16.30
2009,06,29,14,43,16.50
2009,06,29,14,44,16.70
2009,06,29,14,45,16.90
2009,06,29,14,46,17.10
2009,06,29,14,47,17.30
2009,06,29,14,48,17.40
2009,06,29,14,49,17.50
2009,06,29,14,50,17.40
2009,06,29,14,51,17.30
2009,06,29,14,52,17.10
2009,06,29,14,53,16.90
2009,06,29,14,54,16.90
2009,06,29,14,55,16.90
2009,06,29,14,56,17.00
2009,06,29,14,57,17.10
2009,06,29,14,58,17.20
2009,06,29,14,59,17.30
2009,06,29,15,00,17.40
2009,06,29,15,01,17.50
2009,06,29,15,02,17.50
2009,06,29,15,03,17.40
2009,06,29,15,04,17.20
2009,06,29,15,05,17.10
2009,06,29,15,06,17.00
2009,06,29,15,07,16.90
2009,06,29,15,08,16.90
2009,06,29,15,09,17.00
2009,06,29,15,10,17.10
2009,06,29,15,11,17.20
2009,06,29,15,12,17.20
2009,06,29,15,13,17.20
2009,06,29,15,14,17.30
2009,06,29,15,15,17.30
2009,06,29,15,16,17.40
2009,06,29,15,17,17.40
2009,06,29,15,18,17.40
2009,06,29,15,19,17.40
2009,06,29,15,20,17.30
2009,06,29,15,21,17.30
2009,06,29,15,22,17.30
2009,06,29,15,23,17.20
2009,06,29,15,24,16.90
2009,06,29,15,25,16.70
2009,06,29,15,26,16.60
2009,06,29,15,27,16.60
2009,06,29,15,28,16.60
2009,06,29,15,29,16.70
2009,06,29,15,30,16.80
2009,06,29,15,31,16.80
2009,06,29,15,32,16.90
2009,06,29,15,33,16.90
2009,06,29,15,34,16.90
2009,06,29,15,35,16.90
2009,06,29,15,36,16.90
2009,06,29,15,37,16.80
2009,06,29,15,38,16.80
2009,06,29,15,39,16.60
2009,06,29,15,40,16.60
2009,06,29,15,41,16.40
2009,06,29,15,42,16.30
2009,06,29,15,43,16.30
2009,06,29,15,44,16.30
2009,06,29,15,45,16.30
2009,06,29,15,46,16.30
2009,06,29,15,47,16.30
2009,06,29,15,48,16.30
2009,06,29,15,49,16.30
2009,06,29,15,50,16.30
2009,06,29,15,51,16.30
2009,06,29,15,52,16.20
2009,06,29,15,53,16.20
2009,06,29,15,54,16.20
2009,06,29,15,55,16.10
2009,06,29,15,56,16.10
2009,06,29,15,57,16.10
2009,06,29,15,58,16.20
2009,06,29,15,59,16.30
2009,06,29,16,00,16.40
2009,06,29,16,01,16.50
2009,06,29,16,02,16.60
2009,06,29,16,03,16.70
2009,06,29,16,04,16.70
2009,06,29,16,05,16.70
2009,06,29,16,06,16.70
2009,06,29,16,07,16.70
2009,06,29,16,08,16.60
2009,06,29,16,09,16.50
2009,06,29,16,10,16.50
2009,06,29,16,11,16.50
2009,06,29,16,12,16.60
2009,06,29,16,13,16.40
2009,06,29,16,14,16.20
2009,06,29,16,15,16.10
2009,06,29,16,16,16.00
2009,06,29,16,17,15.90
2009,06,29,16,18,15.80
2009,06,29,16,19,15.60
2009,06,29,16,20,15.60
2009,06,29,16,21,15.60
2009,06,29,16,22,15.70
2009,06,29,16,23,15.70
2009,06,29,16,24,15.80
2009,06,29,16,25,15.80
2009,06,29,16,26,16.00
2009,06,29,16,27,16.10
2009,06,29,16,28,16.10
2009,06,29,16,29,16.00
2009,06,29,16,30,16.10
2009,06,29,16,31,16.10
2009,06,29,16,32,16.20
2009,06,29,16,33,16.10
2009,06,29,16,34,16.10
2009,06,29,16,35,16.00
2009,06,29,16,36,15.90
2009,06,29,16,37,15.80
2009,06,29,16,38,15.70
2009,06,29,16,39,15.60
2009,06,29,16,40,15.50
2009,06,29,16,41,15.40
2009,06,29,16,42,15.30
2009,06,29,16,43,15.30
2009,06,29,16,44,15.30
2009,06,29,16,45,15.30
2009,06,29,16,46,15.30
2009,06,29,16,47,15.20
2009,06,29,16,48,15.20
2009,06,29,16,49,15.20
2009,06,29,16,50,15.30
2009,06,29,16,51,15.40
2009,06,29,16,52,15.40
2009,06,29,16,53,15.50
2009,06,29,16,54,15.60
2009,06,29,16,55,15.70
2009,06,29,16,56,15.80
2009,06,29,16,57,15.80
2009,06,29,16,58,15.90
2009,06,29,16,59,16.00
2009,06,29,17,00,16.20
2009,06,29,17,01,16.20
2009,06,29,17,02,16.20
2009,06,29,17,03,16.20
2009,06,29,17,04,16.20
2009,06,29,17,05,16.30
2009,06,29,17,06,16.40
2009,06,29,17,07,16.40
2009,06,29,17,08,16.50
2009,06,29,17,09,16.60
2009,06,29,17,10,16.70
2009,06,29,17,11,16.80
2009,06,29,17,12,16.70
2009,06,29,17,13,16.70
2009,06,29,17,14,16.70
2009,06,29,17,15,16.70
2009,06,29,17,16,16.70
2009,06,29,17,17,16.60
2009,06,29,17,18,16.50
2009,06,29,17,19,16.40
2009,06,29,17,20,16.30
2009,06,29,17,21,16.30
2009,06,29,17,22,16.40
2009,06,29,17,23,16.40
2009,06,29,17,24,16.40
2009,06,29,17,25,16.30
2009,06,29,17,26,16.40
2009,06,29,17,27,16.50
2009,06,29,17,28,16.60